Regional Weather Roundup
Issued by NWS

Home | Current Version | Previous Version | Text Only | Print | Product List | Glossary On
Versions: 1 2 3 4 5 6 7 8 9 10 11 12 13 14 15 16 17 18 19 20 21 22 23 24 25 26 27 28 29 30 31 32 33 34 35 36 37 38 39 40 41 42 43 44 45 46 47 48 49 50
275
ASUS42 KKEY 290610
RWRKEY

FLORIDA REGIONAL WEATHER ROUNDUP FOR THE FLORIDA KEYS
NATIONAL WEATHER SERVICE KEY WEST FLORIDA
200 AM EDT SUN MAY 29 2016

...SOUTH FLORIDA AND THE KEYS...

CITY           SKY/WX    TMP DP  RH WIND       PRES   REMARKS
FORT MYERS     CLEAR     74  71  91 CALM      30.04F
SW REGIONAL AP CLEAR     74  70  87 CALM      30.04F
NAPLES         CLEAR     75  72  90 NE3       30.04S
MIAMI          PTCLDY    78  71  79 CALM      30.04F
WEST KENDALL   CLEAR     73  70  90 CALM      30.04S
HOMESTEAD      CLEAR     74  72  93 CALM      30.03F
MARATHON       CLEAR     80  70  71 E3        30.03F
BOCA CHICA NAS CLEAR     80  70  71 NE5       30.03F
KEY WEST INTL  CLEAR     80  72  76 E5        30.04F

...INTERNATIONAL WEATHER...

CITY           SKY/WX    TMP DP  RH WIND       PRES   REMARKS
NASSAU BAHAMAS PTCLDY    79  75  89 CALM      30.05F
CANCUN MEXICO  PTCLDY    82  77  83 E6        30.00S HX  91
COZUMEL MEXICO PTCLDY    75  73  94 CALM      29.99S

ADJACENT COASTAL WATERS...

STATION/POSITION TIME  SKY/WX   TEMP    WIND        PRES    WAVE
                                AIR SEA DIR/SP/G            HT/PER
                 (UTC)          (F)     (DEG/KT/KT) (MB)    (FT/S)
PULASKI SHOAL LI 0600            81      80/  4/  5 1017.6S
SAND KEY         0550            81     120/  9/ 11 1017.5F
SOMBRERO KEY     NOT AVBL
LONG KEY         0500            82 85  110/  3/  4 1017.6F
MOLASSES REEF    NOT AVBL
FOWEY ROCKS      0600            80 82  120/  6/  7 1017.7F

$$




USA.gov is the U.S. government's official web portal to all federal, state and local government web resources and services.